[[{"header":{"parameterUnit":"m.s-1","parameterCategory":1,"la1":30.2991,"la2":30.254,"lo1":-89.0895,"lo2":-89.0444,"dy":0.0017,"dx":0.0017,"nx":28,"ny":28,"refTime":"2025-08-12T21:00:00:Z","depth":0,"parameterNumber":2,"parameterNumberName":"U-component_of_WINDS"},"data":[0,0,0,0,0,0,0,0,0,0,0,0,0,0,0,0,0,0,0,0,0,0,0,0,0,0,0,0,0,0,0,0,0,0,0,0,0,0,0,0,0,0,0,0,0,0,0,0,0,0,0,0,0,0,0,0,0,0,5.2072,5.2073,0,5.2167,5.2168,5.2169,5.2056,5.2052,5.2048,5.2044,5.2143,5.2149,5.2155,0,0,0,0,0,0,0,0,0,0,0,0,0,5.1794,5.18,5.2072,5.2073,5.2074,5.2166,5.2168,5.2169,5.2057,5.2052,5.2047,5.2042,5.2141,5.2148,5.2156,0,0,0,0,0,0,0,0,0,0,0,0,0,5.1904,5.1801,5.2072,5.2029,5.2027,5.2166,5.2168,5.2169,5.2058,5.2052,5.2045,5.2039,5.2138,5.2147,5.2157,5.2344,0,0,5.2187,5.2191,0,0,0,0,0,0,0,0,5.1898,5.1915,5.2034,5.2033,5.203,5.2093,5.2106,5.2228,5.2059,5.2046,5.2044,5.2036,5.2131,5.2141,5.2173,5.2348,5.2353,5.2188,5.2194,5.2198,5.2201,0,0,0,0,0,0,0,5.1891,5.191,5.2109,5.2036,5.2033,5.2005,5.2014,5.2128,5.2123,5.2047,5.2039,5.2051,5.2129,5.2164,5.2174,5.2354,5.2188,5.2196,5.2203,5.2206,5.2682,5.2689,0,0,0,0,0,0,5.1888,5.1904,5.2106,5.2112,5.1947,5.2016,5.2025,5.2079,5.2121,5.2122,5.2057,5.2046,5.215,5.2163,5.2178,5.2394,5.2198,5.2207,5.2213,5.2676,5.2684,5.2691,0,0,0,0,0,0,5.1882,5.1907,5.2103,5.2006,5.2029,5.2027,5.2088,5.2084,5.2119,5.2129,5.2127,5.2093,5.2146,5.2164,5.2302,5.2396,5.2212,5.2221,5.2668,5.2678,5.2688,5.2833,0,0,0,0,0,0,5.1875,5.1906,5.1977,5.2009,5.2035,5.2226,5.2094,5.2091,5.2136,5.2123,5.2163,5.2163,5.2142,5.2288,5.2312,5.2407,5.2228,5.2659,5.2672,5.2684,5.282,5.2847,5.287,0,0,0,0,0,5.1865,5.2015,5.1981,5.2006,5.2123,5.2232,5.2246,5.2218,5.2144,5.2215,5.2221,5.2162,5.2383,5.2303,5.2329,5.2428,5.2653,5.2669,5.2683,5.2808,5.2841,5.2869,0,0,0,0,0,0,5.1996,5.2019,5.1981,5.2146,5.2187,5.2212,5.2301,5.2255,5.2319,5.2304,5.2267,5.2277,5.2423,5.244,5.2351,5.2609,5.2506,5.2527,5.2592,5.2623,5.2648,5.2639,5.2237,0,0,0,0,0,5.2044,5.213,5.2145,5.2289,5.2312,5.2304,5.235,5.2324,5.2366,5.2383,5.2399,5.2443,5.2521,5.2574,5.2647,5.2823,5.2828,5.2904,5.2929,5.2949,5.2967,5.3057,5.3089,5.2741,5.2741,5.2741,0,0,5.2144,5.2167,5.2224,5.2316,5.2345,5.2434,5.2319,5.2419,5.2484,5.2399,5.2528,5.2542,5.2588,5.2744,5.2814,5.2763,5.3065,5.2969,5.2985,5.2991,5.3076,5.3108,5.3138,5.2751,5.275,5.2748,0,0,5.237,5.2398,5.2519,5.255,5.2595,5.2588,5.2617,5.2649,5.2654,5.2784,5.272,5.2798,5.2935,5.2969,5.3004,5.3241,5.3188,5.3267,5.3397,5.3485,5.3512,5.3536,5.3616,5.3646,5.3285,5.3285,5.3285,0,5.2489,5.262,5.2587,5.269,5.2731,5.2657,5.2777,5.281,5.2878,5.2907,5.2849,5.3017,5.3043,5.3204,5.3261,5.3294,5.3324,5.326,5.3511,5.3535,5.3556,5.3633,5.3664,5.3294,5.3293,5.3292,5.3291,0,5.2761,5.2853,5.2945,5.3009,5.3061,5.3173,5.3156,5.3213,5.3183,5.3182,5.3313,5.3342,5.3417,5.3455,5.3428,5.3612,5.3577,5.3517,5.3411,5.3599,5.367,5.3699,5.3307,5.3303,5.3301,5.3299,0,0,5.3071,5.3114,5.3148,5.3175,5.3219,5.3289,5.3397,5.3469,5.3517,5.3566,5.3653,5.3771,5.3713,5.3753,5.3729,5.3807,5.3987,5.3735,5.3735,5.3777,5.4187,5.4229,5.4264,5.3954,5.3959,5.3964,5.4181,0,5.3294,5.3479,5.3452,5.363,5.3712,5.3642,5.3736,5.3772,5.3774,5.3844,5.3846,5.3928,5.3848,5.387,5.3945,5.395,5.4068,5.3934,5.4032,5.4036,5.4019,5.4302,5.4348,5.4552,5.4209,5.4214,5.4217,0,5.3579,5.3635,5.3821,5.3848,5.3882,5.3966,5.4028,5.4098,5.4137,5.4132,5.4176,5.4137,5.4244,5.414,5.4284,5.4193,5.4232,5.4241,5.4248,5.4253,5.4135,5.431,5.4617,5.4646,5.4262,5.4258,5.4255,0,5.3781,5.3904,5.403,5.4056,5.4092,5.4152,5.417,5.4203,5.4248,5.4303,5.4331,5.4399,5.4435,5.4489,5.4468,5.4395,5.4616,5.4511,5.4613,5.4613,5.4659,5.4656,5.4972,5.4692,5.4692,5.4691,5.4691,0,5.403,5.4146,5.412,5.4197,5.4324,5.4291,5.4417,5.4427,5.4457,5.4533,5.448,5.4553,5.4524,5.4595,5.4581,5.47,5.4718,5.4716,5.471,5.4719,5.4718,5.4741,5.4725,5.4699,5.4697,5.4696,5.4694,0,5.4276,5.4264,5.4396,5.4419,5.4427,5.4519,5.4538,5.4609,5.4607,5.4704,5.4725,5.4721,5.4802,5.4788,5.4879,5.4869,5.5017,5.4996,5.5003,5.4996,5.5097,5.5086,5.5436,5.5478,5.5175,5.5178,5.518,0,5.4434,5.452,5.4552,5.4598,5.462,5.4697,5.4741,5.4713,5.4761,5.4811,5.4876,5.4952,5.501,5.5143,5.5148,5.5216,5.5193,5.5311,5.5203,5.5207,5.519,5.5183,5.5189,5.5331,5.5335,5.5338,5.534,0,5.4714,5.4703,5.4768,5.4831,5.4885,5.4934,5.4977,5.5019,5.4994,5.5051,5.5132,5.5177,5.5268,5.5343,5.5406,5.5424,5.5377,5.5374,5.54,5.5408,5.5407,5.5404,5.5056,5.5365,5.5363,5.5361,5.536,5.5359,5.4917,5.4989,5.5021,5.5095,5.5124,5.5165,5.5232,5.5237,5.5304,5.5374,5.5354,5.5445,5.548,5.5559,5.5585,5.5655,5.5611,5.5651,5.566,5.5669,5.5679,5.5399,5.5667,5.5666,5.5666,5.5665,5.5665,0,5.519,5.5207,5.5275,5.5336,5.5394,5.5345,5.539,5.5441,5.5521,5.5558,5.5616,5.5707,5.5779,5.5789,5.5857,5.5911,5.5891,5.593,5.5923,5.5927,5.5717,5.5685,5.5944,5.5944,5.5944,5.5944,5.5944,5.5944,5.5338,5.5456,5.5449,5.558,5.5596,5.5683,5.5713,5.575,5.5778,5.5882,5.5941,5.5947,5.5972,5.604,5.6104,5.6105,5.613,5.6176,5.6169,5.5971,5.5943,5.5916,5.5886,5.6183,5.6184,5.6373,5.6375,5.6376]},{"header":{"parameterUnit":"m.s-1","parameterCategory":1,"la1":30.2991,"la2":30.254,"lo1":-89.0895,"lo2":-89.0444,"dy":0.0017,"dx":0.0017,"nx":28,"ny":28,"refTime":"2025-08-12T21:00:00:Z","depth":0,"parameterNumber":3,"parameterNumberName":"V-component_of_WINDS"},"data":[0,0,0,0,0,0,0,0,0,0,0,0,0,0,0,0,0,0,0,0,0,0,0,0,0,0,0,0,0,0,0,0,0,0,0,0,0,0,0,0,0,0,0,0,0,0,0,0,0,0,0,0,0,0,0,0,0,0,3.6069,3.6069,0,3.6103,3.6103,3.6103,3.6063,3.6061,3.606,3.6058,3.6091,3.6093,3.6095,0,0,0,0,0,0,0,0,0,0,0,0,0,3.5966,3.5968,3.6069,3.6069,3.607,3.6103,3.6103,3.6104,3.6063,3.6061,3.6059,3.6057,3.609,3.6093,3.6095,0,0,0,0,0,0,0,0,0,0,0,0,0,3.6006,3.5969,3.6069,3.6054,3.6052,3.6103,3.6103,3.6104,3.6063,3.6061,3.6059,3.6057,3.6089,3.6093,3.6096,3.6162,0,0,3.6106,3.6108,0,0,0,0,0,0,0,0,3.6004,3.601,3.6055,3.6055,3.6054,3.6076,3.6079,3.6123,3.6064,3.6059,3.6058,3.6056,3.6088,3.6091,3.6102,3.6164,3.6165,3.6107,3.6109,3.611,3.6111,0,0,0,0,0,0,0,3.6001,3.6008,3.6082,3.6056,3.6055,3.6044,3.6047,3.6087,3.6086,3.6059,3.6056,3.6061,3.6087,3.6099,3.6103,3.6166,3.6106,3.611,3.6112,3.6113,3.6279,3.6282,0,0,0,0,0,0,3.6,3.6006,3.6081,3.6083,3.6023,3.6047,3.6051,3.6071,3.6085,3.6085,3.6063,3.6059,3.6094,3.6099,3.6104,3.618,3.611,3.6113,3.6115,3.6277,3.628,3.6282,0,0,0,0,0,0,3.5998,3.6008,3.608,3.6044,3.6052,3.6052,3.6075,3.6073,3.6085,3.6088,3.6087,3.6076,3.6093,3.6099,3.6147,3.618,3.6115,3.6118,3.6274,3.6278,3.6281,3.6334,0,0,0,0,0,0,3.5996,3.6007,3.6033,3.6045,3.6054,3.6124,3.6077,3.6075,3.6092,3.6087,3.61,3.61,3.6091,3.6142,3.6151,3.6184,3.6121,3.6271,3.6276,3.628,3.6329,3.6339,3.6347,0,0,0,0,0,3.5992,3.6047,3.6035,3.6044,3.6087,3.6126,3.6131,3.6121,3.6095,3.612,3.6121,3.6099,3.6176,3.6148,3.6157,3.6191,3.6269,3.6275,3.628,3.6325,3.6337,3.6347,0,0,0,0,0,0,3.604,3.6048,3.6035,3.6096,3.611,3.6119,3.6151,3.6134,3.6157,3.6151,3.6137,3.614,3.6191,3.6196,3.6165,3.6254,3.6218,3.6225,3.6249,3.626,3.6269,3.6266,3.6123,0,0,0,0,0,3.6057,3.6089,3.6095,3.6147,3.6155,3.6152,3.6169,3.6159,3.6174,3.618,3.6184,3.6199,3.6225,3.6243,3.6269,3.633,3.6331,3.6358,3.6367,3.6374,3.638,3.641,3.6421,3.63,3.63,3.63,0,0,3.6094,3.6102,3.6123,3.6157,3.6167,3.6199,3.6158,3.6194,3.6216,3.6185,3.623,3.6234,3.6249,3.6303,3.6328,3.6309,3.6414,3.6381,3.6387,3.6389,3.6417,3.6428,3.6438,3.6304,3.6303,3.6302,0,0,3.6176,3.6187,3.623,3.6241,3.6257,3.6254,3.6265,3.6276,3.6277,3.6322,3.6299,3.6325,3.6372,3.6383,3.6394,3.6478,3.6458,3.6487,3.6533,3.6562,3.6572,3.658,3.6607,3.6617,3.6493,3.6493,3.6493,0,3.6219,3.6266,3.6255,3.6291,3.6306,3.6279,3.6322,3.6333,3.6356,3.6366,3.6345,3.6402,3.6411,3.6465,3.6486,3.6497,3.6506,3.6484,3.6571,3.658,3.6587,3.6613,3.6623,3.6496,3.6496,3.6496,3.6495,0,3.6317,3.635,3.6383,3.6405,3.6424,3.6464,3.6456,3.6476,3.6465,3.6464,3.6508,3.6517,3.6542,3.6555,3.6545,3.6608,3.6596,3.6574,3.6536,3.6602,3.6626,3.6636,3.6501,3.65,3.6499,3.6498,0,0,3.643,3.6444,3.6456,3.6465,3.648,3.6504,3.6542,3.6566,3.6582,3.6599,3.6628,3.6668,3.6647,3.666,3.665,3.6676,3.6739,3.6651,3.6651,3.6664,3.6805,3.682,3.6832,3.6726,3.6728,3.6729,3.6803,0,3.651,3.6575,3.6565,3.6627,3.6655,3.663,3.6662,3.6673,3.6673,3.6696,3.6695,3.6723,3.6694,3.6701,3.6726,3.6726,3.6766,3.6721,3.6751,3.6752,3.6746,3.6845,3.6861,3.6931,3.6813,3.6814,3.6816,0,3.6612,3.6631,3.6696,3.6704,3.6715,3.6745,3.6765,3.6788,3.68,3.6797,3.6811,3.6796,3.6832,3.6795,3.6842,3.6811,3.6823,3.6825,3.6827,3.6828,3.6787,3.6846,3.6953,3.6962,3.6831,3.6829,3.6828,0,3.6685,3.6727,3.677,3.6779,3.679,3.681,3.6816,3.6825,3.684,3.6857,3.6866,3.6888,3.6899,3.6915,3.6906,3.688,3.6954,3.6917,3.6951,3.6951,3.6966,3.6965,3.7074,3.6978,3.6978,3.6978,3.6977,0,3.6774,3.6814,3.6803,3.6829,3.6872,3.686,3.6903,3.6905,3.6913,3.6938,3.6918,3.6942,3.6929,3.6952,3.6945,3.6983,3.6989,3.6987,3.6984,3.6988,3.6988,3.6994,3.6988,3.698,3.698,3.6979,3.6979,0,3.6862,3.6856,3.6901,3.6907,3.6909,3.6941,3.6945,3.6969,3.6966,3.6998,3.7005,3.7001,3.7026,3.7019,3.7047,3.7042,3.709,3.7082,3.7086,3.7083,3.7116,3.7112,3.7232,3.7245,3.7143,3.7144,3.7145,0,3.6918,3.6948,3.6956,3.6971,3.6978,3.7004,3.7018,3.7006,3.7021,3.7035,3.7057,3.7081,3.7099,3.714,3.7139,3.7159,3.715,3.7191,3.7153,3.7155,3.7148,3.7145,3.7147,3.7197,3.7199,3.72,3.72,0,3.7017,3.7012,3.7034,3.7053,3.7071,3.7086,3.7099,3.7113,3.7102,3.712,3.7145,3.7159,3.7186,3.7209,3.7227,3.7231,3.7213,3.7212,3.7221,3.7223,3.7223,3.7221,3.7104,3.7209,3.7208,3.7208,3.7207,3.7207,3.7089,3.7113,3.7122,3.7146,3.7154,3.7166,3.7188,3.7188,3.7209,3.723,3.7222,3.725,3.7259,3.7281,3.7288,3.7309,3.7294,3.7307,3.731,3.7312,3.7315,3.7222,3.7313,3.7313,3.7312,3.7312,3.7312,0,3.7185,3.7189,3.7211,3.7229,3.7247,3.7229,3.7242,3.7258,3.7283,3.7293,3.7311,3.7339,3.736,3.736,3.738,3.7397,3.7389,3.7402,3.7399,3.74,3.733,3.7319,3.7408,3.7408,3.7408,3.7408,3.7408,3.7408,3.7237,3.7275,3.7271,3.7313,3.7317,3.7344,3.7353,3.7363,3.7371,3.7403,3.742,3.742,3.7425,3.7445,3.7463,3.7463,3.747,3.7486,3.7482,3.7415,3.7406,3.7396,3.7386,3.7488,3.7488,3.755,3.7551,3.7551]}]]